Location: Châteauvieux
(47.2310°N, 1.3828°E)
Time: 21:58:26
(UTC+00:00)

TSX-5 - Pass Details

Date: 15 May 2026
Orbit: 386 x 992 km, 68.9° (Epoch: 11 June)

Event Time Altitude Azimuth Distance (km) Brightness Sun altitude
Rises 22:26:23 0° 332° (NNW) 2,296 8.5 -21.1°
Reaches altitude 10° 22:28:22 10° 336° (NNW) 1,459 7.2 -21.2°
Enters shadow 22:31:14 60° 29° (NNE) 490 3.6 -21.3°
